User: anonymous   Login
Location: Campo Alegre
(10.1673°N, 67.4431°W)
Time: 12:20:17
(UTC+00:00)
Language:

Cosmos 1400 Rocket - Orbit

View from above orbital plane
View from above orbital plane
View from above satellite
View from above satellite

Ground track
Ground track

The orbit data is extracted from the following two-line orbital elements,

1 13403U 82079B   24172.16068972  .00003353  00000-0  17837-3 0  9995
2 13403  81.1507 208.7228 0031103 116.3556 244.0872 15.14562415282585
Epoch (UTC): 20 June 2024 03:51:23
Eccentricity: 0.0031103
inclination: 81.1507°
perigee height: 501 km
apogee height: 544 km
right ascension of ascending node: 208.7228°
argument of perigee: 116.3556°
revolutions per day: 15.14562415
mean anomaly at epoch: 244.0872°
orbit number at epoch: 28258

The dashed part of the orbit path shows where the satellite is in the earth's shadow,  

DLR